Zurück zum Katalog

SDA_1679

AktivWissenschaftPO
NORAD 65989·PAYLOAD·🇺🇸 United States

Gestartet Oct 15, 2025 von Vandenberg Space Force Base

Loading…

Nächste Überflüge (nächste 24 Stunden)

TLE

AktuellSource: Space-Track

Epoche: Sep 14, 2026, 14:12 UTC

1 65989U 25230R   26257.59219012  .00000095  00000-0  74163-4 0  9999
2 65989  81.3022 128.7558 0003109 342.1391  17.9657 13.84860972 46190

Verfolge SDA_1679 in Echtzeit mit AllMySat

Download on the App Store